RH
35 14 21 40 41 34 31 27 26 28 32 42 51 52 37 41 25 24 37 51 29 34 40 42 52 48 40 37 38 37 43 50 51 56 65 57 56 69 65 51 68 69 70 60 54 48 46 49 43
30 18 23 34 23 22 18 19 23 21 30 36 42 39 35 32 25 20 27 54 38 29 36 43 51 50 47 37 38 39 39 44 45 41 44 53 56 51 49 47 48 62 60 55 58 56 50 49 51
34 24 18 14 9 9 9 13 16 16 20 30 25 33 26 17 21 18 20 47 54 31 34 42 50 54 54 64 51 41 41 40 42 45 50 57 50 52 56 58 58 63 74 75 78 75 58 47 61
22 25 33 13 19 18 18 20 18 15 15 17 18 19 34 32 15 18 20 29 54 35 32 39 50 54 61 60 69 73 65 51 49 52 55 63 66 64 60 55 55 59 78 85 66 75 62 46 70
26 37 55 16 19 18 20 18 18 14 12 15 14 14 14 25 26 16 22 22 50 50 29 38 48 54 58 67 69 74 82 81 66 44 48 51 47 49 57 56 61 72 88 87 56 55 64 54 71
18 30 32 15 18 13 12 17 16 11 8 15 23 16 14 27 25 25 27 24 39 64 35 38 44 54 58 67 82 90 74 80 84 73 52 50 54 50 53 56 60 70 75 71 55 50 54 60 67
11 10 9 8 9 8 10 16 17 10 8 12 20 22 17 13 19 36 22 26 31 59 63 36 43 53 56 65 83 92 81 83 87 84 63 54 54 38 37 46 52 58 61 59 57 57 58 54 55
13 9 14 13 12 14 15 13 11 8 9 11 14 17 22 20 16 29 24 27 32 50 59 34 46 53 57 66 85 89 82 86 91 83 74 69 57 49 31 32 39 41 42 42 43 47 51 51 52
22 8 18 22 22 22 21 11 9 8 8 13 14 17 23 24 26 36 33 40 47 51 52 33 47 50 58 60 60 52 66 86 98 98 93 87 67 64 40 38 41 38 36 34 35 41 45 47 47
12 13 20 25 27 31 32 18 9 9 9 9 12 14 17 27 43 47 31 39 39 48 57 44 41 50 54 52 52 45 58 78 97 90 83 81 75 54 54 59 55 45 36 35 44 43 51 45 45
11 11 13 17 17 20 15 7 7 6 11 27 10 9 11 20 37 44 48 40 44 44 48 56 37 53 54 48 40 52 57 87 93 88 90 84 81 80 78 60 76 80 54 39 40 53 40 36 47
10 8 20 25 29 34 23 11 9 13 16 20 34 18 23 23 34 46 59 69 60 51 39 55 53 40 57 54 53 48 55 96 95 92 88 89 90 89 84 74 57 57 66 51 39 44 37 38 46
12 13 27 42 38 43 53 53 29 22 42 45 46 42 39 49 42 40 52 67 69 69 55 42 67 41 65 57 46 42 68 95 97 91 99 90 84 91 91 86 75 72 56 45 28 30 28 31 34
29 15 29 52 48 52 63 61 59 56 41 42 41 52 62 55 63 66 56 48 69 64 60 61 60 69 70 55 38 46 75 78 95 97 98 94 96 97 95 95 87 75 88 74 58 23 23 31 30
29 28 37 56 49 50 57 59 58 63 63 53 29 48 62 63 63 67 59 73 71 73 81 64 68 72 52 72 35 38 76 72 91 88 86 93 87 95 96 98 98 94 96 96 76 43 22 30 34
40 53 42 65 65 57 48 54 53 61 64 66 46 33 53 62 53 59 62 76 78 82 89 85 64 73 70 75 38 31 57 64 61 76 63 67 61 62 68 89 97 94 59 85 93 45 34 39 37
48 73 60 64 51 60 54 51 46 60 72 76 78 74 81 75 76 65 64 67 90 74 74 84 68 80 82 77 57 41 42 45 52 50 48 57 61 57 52 51 76 71 52 62 93 86 76 63 46
73 72 59 60 60 43 63 57 56 54 68 64 70 73 91 95 86 78 66 69 74 88 97 86 96 83 81 77 71 52 48 35 36 39 43 40 40 42 44 50 50 51 46 48 85 97 92 93 79
86 91 63 64 56 34 54 46 52 51 58 65 64 64 69 93 90 48 62 72 66 73 94 92 96 83 75 78 73 61 55 44 38 33 29 29 27 26 27 28 33 35 40 45 43 71 78 78 81
95 79 73 64 60 34 32 55 48 52 60 66 72 62 57 68 63 35 52 64 62 71 83 94 82 78 68 71 64 63 54 44 34 35 34 32 35 34 34 35 35 33 31 28 38 44 53 61 64
96 81 70 62 27 42 29 51 54 56 61 73 80 69 69 62 60 48 44 34 65 79 85 95 91 70 67 61 58 52 50 47 41 44 41 60 44 40 43 40 45 43 38 37 38 30 29 40 44
84 74 68 70 30 18 22 38 48 52 77 72 66 61 54 60 56 58 65 62 72 73 90 88 95 94 79 62 57 55 58 59 62 61 54 53 59 61 58 53 51 58 62 52 55 50 38 44 29
78 72 67 64 34 16 36 27 31 41 61 56 54 62 64 75 66 59 69 87 83 78 76 88 94 92 95 93 87 76 68 66 73 76 76 76 78 83 87 78 78 74 66 61 61 55 59 60 63
80 73 65 56 29 22 27 28 26 42 52 63 50 50 77 99 84 66 60 69 84 83 72 79 91 93 94 89 86 88 86 81 88 85 83 87 86 71 75 77 75 79 76 74 79 74 78 88 82
68 68 56 32 23 26 20 18 24 37 67 65 64 55 85 82 76 61 67 66 94 75 72 77 85 80 76 52 89 91 89 85 73 77 93 81 77 68 57 58 58 60 63 69 85 86 88 86 95
42 55 54 37 37 24 15 25 32 57 71 53 61 66 82 68 53 63 85 88 73 83 79 77 82 75 71 45 87 91 90 81 80 82 84 83 72 64 69 54 68 69 55 65 66 70 78 65 64
42 43 38 36 25 18 49 50 62 66 68 54 52 70 97 87 86 96 100 95 92 68 65 70 58 55 40 27 30 33 39 71 73 65 40 32 32 35 43 28 13 43 43 34 44 65 64 59 62
43 35 45 48 51 59 55 52 58 67 64 56 50 66 92 97 93 83 77 68 60 54 45 35 28 17 9 6 5 5 5 6 3 3 2 3 2 2 2 2 2 2 11 11 13 31 48 56 66
49 48 56 57 64 69 43 46 29 27 41 60 53 54 72 87 89 85 74 40 27 28 22 16 9 4 3 3 3 3 4 4 4 4 5 5 5 5 5 5 4 4 4 2 2 4 11 18 21
49 52 70 71 72 69 46 24 29 21 22 34 44 47 53 50 64 50 33 24 19 15 13 10 6 4 3 4 4 4 5 6 6 7 8 9 10 10 10 10 10 9 7 6 5 3 2 6 19
Wind_Speed
11 12 10 8 9 11 9 11 13 14 13 12 10 7 6 8 8 9 9 10 10 7 11 11 12 13 15 14 15 15 14 15 15 15 15 14 14 12 10 10 11 10 10 10 9 9 9 8 7
9 13 13 11 11 9 10 10 11 12 13 13 10 8 6 8 6 8 7 10 10 7 11 10 12 13 16 16 16 16 15 15 16 16 15 14 13 11 11 10 10 9 9 9 8 8 8 9 8
10 8 10 10 10 11 11 10 10 10 13 11 10 9 8 8 6 6 7 10 10 8 10 10 12 13 16 18 19 17 16 15 14 16 15 13 13 12 10 9 9 8 8 7 7 8 7 8 9
13 9 9 12 12 13 12 10 12 14 13 13 11 9 8 8 8 7 6 9 10 9 10 10 12 13 15 16 18 19 18 16 14 13 14 13 12 12 11 8 7 7 6 7 6 8 8 9 10
8 5 6 8 11 13 13 12 15 18 19 17 13 10 8 8 9 7 7 9 9 7 9 10 11 12 13 13 13 14 15 16 15 13 12 13 12 12 12 11 10 9 8 9 8 8 8 9 9
9 4 5 9 11 12 10 11 15 18 17 18 16 13 11 10 10 7 7 8 9 8 7 9 10 11 12 11 11 10 11 12 13 14 12 11 11 12 11 10 10 11 10 10 9 9 8 6 5
10 6 6 8 11 12 13 13 14 17 17 16 15 14 13 10 8 6 6 8 8 8 6 7 9 10 10 10 11 12 13 11 11 10 13 11 10 12 13 12 12 12 11 10 10 9 8 7 5
7 6 5 7 12 15 13 11 12 13 16 15 14 13 12 11 10 7 6 7 7 8 6 7 8 9 10 9 11 11 11 10 8 7 9 12 10 12 13 15 14 14 13 12 12 11 10 8 7
8 8 8 8 12 12 12 11 15 17 18 19 16 13 11 11 9 6 5 6 8 7 5 7 8 7 9 8 8 8 9 9 11 5 8 8 11 11 13 14 14 13 14 13 13 13 12 10 6
5 11 13 10 13 11 10 13 16 17 18 18 16 13 12 10 9 6 5 6 7 7 6 7 8 7 5 5 5 7 7 9 11 8 10 10 12 12 12 13 13 12 12 12 11 11 11 10 9
5 14 19 19 18 16 14 15 15 14 15 19 17 13 13 10 7 4 3 3 3 6 7 8 9 7 4 3 3 7 7 10 10 7 11 10 12 8 8 7 8 8 9 10 10 10 10 10 10
7 13 21 21 24 28 26 23 18 14 14 14 15 14 17 14 9 5 3 3 3 5 7 8 9 9 6 3 6 7 8 11 13 13 12 11 10 7 5 6 8 8 7 7 9 7 8 7 7
10 16 21 21 25 29 30 28 24 17 13 12 13 13 14 15 13 10 5 1 4 6 8 9 9 9 6 7 7 8 9 13 18 11 14 13 10 8 9 3 4 7 7 6 7 6 6 7 6
0 14 18 21 23 26 26 26 27 22 15 11 12 10 12 12 9 8 7 4 4 6 7 9 10 10 8 7 8 8 10 11 17 21 15 8 8 9 6 8 7 3 2 3 4 4 5 6 6
12 12 15 20 20 19 20 23 26 19 21 18 14 10 8 7 6 5 3 3 3 6 8 10 11 12 12 9 9 8 10 9 12 17 18 15 13 11 9 13 5 6 5 6 1 3 6 5 6
10 9 10 14 14 15 13 18 20 17 20 22 14 11 8 7 6 3 5 1 3 3 6 11 14 16 16 14 11 10 9 10 10 13 12 13 11 12 11 13 16 9 11 10 3 6 7 5 6
9 7 5 7 9 11 12 13 14 17 19 13 11 10 11 11 11 9 4 1 1 1 1 9 16 19 18 15 12 11 10 9 8 9 9 9 10 8 7 8 9 8 8 11 8 11 7 5 7
5 5 4 4 7 8 10 13 15 15 16 14 16 20 22 19 9 5 2 1 3 5 7 9 18 17 18 17 15 11 10 10 9 6 6 5 6 7 5 4 3 4 5 8 9 6 3 1 9
6 2 2 1 4 5 8 11 13 13 16 20 19 21 25 23 10 4 3 3 3 2 4 10 20 17 16 17 16 13 10 9 9 9 7 6 4 4 5 3 2 1 1 2 2 2 3 8 11
6 5 2 4 3 5 9 12 10 12 17 21 20 16 17 13 12 7 4 4 2 2 1 10 12 14 15 15 14 13 12 11 10 10 9 8 8 8 7 6 6 6 6 5 5 4 3 3 4
11 11 9 6 7 5 6 9 11 15 20 20 24 12 10 7 8 6 7 5 5 5 3 3 10 12 13 14 13 13 13 11 10 10 11 11 12 11 10 10 9 9 10 10 10 10 9 8 8
14 14 13 12 6 7 6 6 9 13 20 23 19 22 10 9 3 4 6 4 3 4 11 10 12 11 13 14 14 14 14 14 14 14 15 13 11 12 13 13 13 13 12 13 13 13 11 12 12
14 15 18 16 14 7 9 10 11 13 20 22 18 20 20 5 7 7 5 10 14 6 10 12 13 5 4 3 8 18 18 17 16 15 15 15 14 14 14 15 16 19 19 18 17 17 16 15 15
19 19 16 17 15 9 11 14 11 16 21 24 24 25 21 6 8 11 11 11 14 6 9 11 10 9 8 7 10 8 17 18 17 15 16 15 16 16 15 14 17 19 20 23 21 21 20 19 18
20 24 21 19 15 13 15 14 13 16 20 30 25 19 13 14 13 13 11 9 7 5 4 3 3 7 9 14 16 10 10 14 10 9 12 13 13 13 14 14 15 15 16 17 17 20 23 23 19
24 23 22 17 18 18 15 12 14 12 18 23 20 14 0 10 13 10 11 11 9 10 8 7 4 6 11 11 12 7 19 12 10 13 16 18 17 16 15 9 16 18 15 24 20 19 18 17 18
13 18 14 14 10 8 9 9 8 12 17 15 21 11 6 11 11 13 18 17 11 8 6 10 11 11 12 13 8 9 9 9 15 16 17 18 15 19 20 22 20 15 13 15 7 18 22 19 20
16 13 10 9 9 11 10 6 13 13 17 12 15 13 10 17 17 16 17 13 14 14 13 13 13 11 10 11 11 10 9 11 14 15 15 14 13 13 14 15 15 16 19 19 20 20 16 21 24
11 9 10 11 12 15 14 12 8 16 15 13 16 19 5 10 22 21 19 16 14 14 12 12 12 10 10 10 10 10 10 13 14 14 15 16 16 15 14 15 18 19 21 21 19 20 22 22 24
15 15 13 15 15 16 20 15 17 16 19 19 14 18 13 2 13 15 12 12 10 11 13 14 14 13 11 11 11 12 14 15 15 16 17 18 20 21 22 22 21 21 22 24 25 24 24 23 25
Wind_Direction
53 61 53 57 68 71 73 61 63 66 58 60 60 79 68 76 84 94 121 116 99 95 85 74 80 77 68 64 73 84 90 88 86 87 88 88 98 105 91 93 106 108 114 116 116 119 123 121 121
49 62 62 76 70 67 67 59 52 53 58 64 65 72 78 90 77 100 122 123 104 99 89 81 87 83 78 72 70 76 83 85 86 84 88 91 91 90 96 99 101 105 106 110 111 112 123 136 128
75 61 85 80 67 61 51 46 50 53 52 60 57 60 63 68 78 93 113 121 114 104 96 86 89 87 83 79 75 73 75 76 76 80 84 88 92 96 97 101 102 102 100 102 102 109 124 135 124
75 102 86 74 62 58 44 40 47 43 48 51 44 50 51 60 61 75 88 110 116 105 103 92 92 92 86 83 83 81 77 76 74 77 80 83 89 93 96 101 105 106 102 93 77 100 123 128 134
81 131 97 87 72 60 56 44 38 33 31 41 42 38 44 50 52 58 86 100 106 98 99 93 92 98 92 83 84 87 84 82 82 79 80 86 89 95 99 106 103 95 103 105 80 87 121 136 136
85 125 105 92 85 69 56 41 36 35 32 35 38 34 37 47 45 60 85 91 110 103 83 89 90 99 100 91 80 83 100 89 86 87 87 90 92 94 95 105 108 103 104 103 99 88 91 124 140
97 109 101 94 85 70 57 49 37 34 36 38 33 37 39 43 44 49 55 93 106 113 104 98 94 97 100 99 89 85 99 89 83 91 94 95 95 87 98 105 112 110 108 105 101 95 84 79 94
70 90 87 79 67 66 59 55 50 35 36 37 28 34 38 40 41 40 41 73 104 119 118 122 105 98 106 102 97 88 83 78 80 91 107 99 99 98 89 95 101 105 101 98 99 98 98 91 81
47 90 83 63 60 58 55 42 44 34 31 29 24 30 33 41 48 59 65 78 102 124 131 140 130 110 117 113 90 70 54 64 55 80 141 115 107 101 99 99 99 101 103 103 106 105 99 86 90
58 95 84 74 60 55 54 43 37 34 33 27 15 24 31 31 49 55 70 86 102 132 153 166 150 137 130 122 80 56 44 40 46 112 129 115 114 103 102 103 98 98 101 106 105 106 103 96 94
110 104 90 75 72 56 43 46 39 33 33 28 18 28 30 32 46 55 76 104 117 138 171 178 163 159 160 110 68 60 52 44 89 125 119 117 111 107 88 101 96 102 95 101 101 97 101 107 101
115 114 92 73 66 57 45 38 38 39 29 23 17 42 50 42 35 41 69 128 182 174 175 179 171 170 173 127 88 72 72 70 86 115 92 130 114 101 83 107 105 94 90 93 94 101 110 105 107
118 109 92 74 67 65 52 44 34 35 40 37 34 36 58 52 34 28 32 64 190 187 175 176 177 176 173 147 111 90 95 98 88 116 120 114 101 79 67 79 128 106 90 86 93 113 120 126 122
333 112 98 76 69 71 59 44 27 26 17 10 31 38 46 54 52 27 354 320 246 219 188 179 185 181 167 158 129 109 107 95 93 104 105 124 105 86 68 62 110 150 96 102 102 116 124 121 115
142 113 98 87 71 63 61 45 29 23 6 355 344 355 16 51 49 32 9 343 230 221 205 193 188 186 186 179 153 128 121 107 93 93 103 103 90 84 84 82 112 92 53 28 97 129 134 132 121
155 139 108 101 85 69 63 39 27 21 4 353 343 326 330 344 355 17 1 5 213 239 215 202 196 192 187 185 177 144 132 127 108 105 101 104 95 83 78 63 87 87 53 39 46 151 124 132 123
173 137 137 70 82 74 60 37 32 24 15 3 356 350 349 312 301 321 350 60 38 68 118 203 194 190 192 186 185 161 147 142 131 120 114 117 111 94 79 77 80 77 56 35 48 143 120 126 134
170 122 102 43 61 84 65 34 27 25 22 12 13 5 340 330 257 313 10 33 24 45 119 173 185 193 194 193 191 184 165 159 150 149 145 145 136 129 117 104 89 81 70 51 59 116 110 272 178
154 198 117 11 25 33 63 38 30 29 8 12 357 359 359 4 24 356 327 281 6 42 144 182 180 184 198 197 194 194 194 187 176 174 181 177 176 173 171 182 195 280 48 74 61 111 46 58 130
196 225 228 288 329 6 54 46 33 16 356 354 346 352 354 353 356 354 314 310 342 12 174 179 182 186 201 206 206 206 211 211 203 204 208 207 211 219 225 226 237 246 260 256 246 232 215 211 190
214 229 230 280 299 357 44 47 24 4 350 349 348 348 355 4 323 334 355 335 1 8 338 288 198 203 213 217 217 223 222 231 244 242 240 246 239 241 248 251 248 254 264 265 263 261 251 241 242
225 239 247 269 300 354 6 18 5 5 354 347 348 346 359 339 267 285 332 335 350 33 4 315 285 201 215 221 221 225 233 233 231 242 249 252 259 267 268 268 266 260 258 261 263 263 262 262 258
225 243 253 267 276 319 347 351 0 352 344 336 333 345 339 308 232 237 237 286 299 278 14 12 56 49 325 234 263 243 228 232 235 238 238 240 242 248 258 263 271 274 270 266 267 268 262 258 260
222 246 257 259 280 303 312 325 359 343 337 328 329 330 328 266 211 223 237 263 304 234 42 41 13 7 2 305 275 253 244 241 239 236 240 240 243 252 256 263 268 278 284 278 275 273 274 266 260
240 244 255 268 286 304 319 331 356 350 347 334 326 318 342 179 192 217 233 254 263 277 349 22 61 340 342 343 350 204 218 216 222 234 243 239 246 256 266 279 280 283 290 289 275 272 260 258 256
230 237 252 275 288 296 310 340 349 357 353 347 344 312 220 199 206 215 242 243 263 270 269 313 346 320 315 333 7 29 227 230 240 256 255 260 256 274 292 335 305 271 319 288 279 276 270 266 268
213 227 240 256 293 302 331 354 12 342 329 345 352 294 238 208 208 219 228 240 255 256 267 290 289 287 290 300 293 288 273 277 266 267 278 273 251 261 266 275 289 271 283 274 326 275 261 274 272
228 220 234 280 291 303 320 342 2 350 342 321 348 347 218 217 213 223 228 245 260 260 262 268 273 278 280 278 274 273 273 268 273 280 285 291 294 292 293 299 292 276 274 283 284 271 266 268 270
215 226 246 265 268 283 320 343 338 324 326 325 308 340 288 251 219 223 248 260 268 274 282 294 295 295 291 285 290 291 285 281 283 283 286 291 295 295 293 291 292 292 291 286 282 278 274 277 268
221 232 246 260 279 292 305 320 306 316 307 300 288 303 331 310 215 238 250 265 276 287 298 303 302 298 288 280 278 279 282 284 285 289 292 294 295 296 296 294 289 285 281 281 284 282 277 275 272